User: anonymous   Login
Location: Newsoms
(36.6240°N, 77.1250°W)
Time: 04:46:57
(UTC-04:00)
Language:

BREEZE-M DEB (TANK) - Orbit

View from above orbital plane
View from above orbital plane
View from above satellite
View from above satellite

Ground track
Ground track

The orbit data is extracted from the following two-line orbital elements,

1 29649U 06056B   15114.25526628  .00004792  00000-0  13871-2 0  9999
2 29649 049.4948 085.9050 5382147 033.1162 015.1741 04.96384249148644
Epoch (UTC): 24 April 2015 06:07:35
Eccentricity: 0.5382147
inclination: 49.4948°
perigee height: 325 km
apogee height: 15951 km
right ascension of ascending node: 85.9050°
argument of perigee: 33.1162°
revolutions per day: 4.96384249
mean anomaly at epoch: 15.1741°
orbit number at epoch: 14864

The dashed part of the orbit path shows where the satellite is in the earth's shadow,  

DLR